Visibility
6.5 7.1 12.4 15.0 15.0 15.0 15.0 15.0 15.0 15.0 15.0 13.0 15.0 14.4 8.0 9.9 14.8 8.4 0.3 12.9 5.8 0.1 7.6 15.0 15.0 15.0 15.0 15.0 10.6 10.3 1.9 0.3 0.0 0.1 2.7 11.2 6.7 15.0 2.1 15.0 15.0 10.9 5.1 10.4 1.7 0.2 3.7 5.9 15.0 4.9 15.0 15.0 15.0 15.0
15.0 15.0 15.0 15.0 15.0 15.0 15.0 15.0 15.0 15.0 15.0 13.0 11.3 15.0 12.1 10.0 15.0 13.7 0.0 6.8 15.0 1.2 0.1 15.0 15.0 15.0 15.0 15.0 4.8 2.2 15.0 15.0 13.4 3.1 4.1 9.9 0.4 0.4 14.5 12.7 15.0 10.6 15.0 15.0 15.0 15.0 15.0 15.0 15.0 15.0 15.0 15.0 15.0 15.0
10.8 9.8 15.0 15.0 15.0 15.0 15.0 15.0 15.0 15.0 15.0 15.0 8.1 12.8 14.8 7.5 13.5 15.0 0.1 2.8 13.0 0.0 0.1 0.1 11.5 15.0 15.0 15.0 15.0 7.5 0.3 15.0 12.8 15.0 15.0 5.2 6.5 15.0 9.5 10.0 15.0 15.0 15.0 15.0 15.0 15.0 15.0 15.0 15.0 15.0 15.0 15.0 15.0 15.0
15.0 15.0 15.0 15.0 15.0 13.6 15.0 7.3 13.3 15.0 15.0 15.0 15.0 10.3 10.5 8.3 12.2 12.7 4.7 10.6 5.2 0.1 3.6 10.6 15.0 15.0 15.0 15.0 15.0 15.0 15.0 11.4 8.6 0.5 0.4 0.4 4.4 15.0 13.0 15.0 8.7 15.0 15.0 15.0 15.0 15.0 15.0 15.0 15.0 15.0 15.0 15.0 15.0 15.0
15.0 15.0 15.0 15.0 15.0 15.0 15.0 15.0 8.8 9.0 15.0 15.0 12.3 9.0 5.8 10.9 15.0 15.0 12.4 13.1 15.0 15.0 14.3 15.0 15.0 15.0 15.0 15.0 15.0 15.0 15.0 0.0 0.0 0.0 0.1 0.7 5.6 5.0 1.3 4.8 0.1 15.0 15.0 15.0 15.0 15.0 15.0 15.0 15.0 15.0 15.0 15.0 15.0 15.0
15.0 15.0 15.0 15.0 15.0 15.0 15.0 14.8 15.0 15.0 15.0 15.0 15.0 9.4 5.6 4.0 7.8 15.0 0.1 0.7 15.0 15.0 0.2 5.8 15.0 15.0 15.0 15.0 15.0 15.0 0.4 0.0 0.0 0.1 0.1 0.3 14.2 3.8 1.6 1.3 15.0 15.0 15.0 15.0 15.0 15.0 15.0 15.0 15.0 15.0 15.0 15.0 15.0 15.0
15.0 15.0 15.0 15.0 15.0 15.0 15.0 15.0 10.4 12.4 15.0 9.9 14.6 6.6 10.2 15.0 15.0 15.0 15.0 15.0 15.0 14.2 0.9 11.6 12.8 15.0 15.0 15.0 12.6 0.1 0.1 0.1 0.2 0.1 0.1 0.2 0.1 0.1 0.1 0.2 15.0 15.0 15.0 15.0 15.0 15.0 15.0 15.0 15.0 15.0 15.0 15.0 15.0 15.0
15.0 15.0 15.0 15.0 15.0 15.0 15.0 15.0 15.0 15.0 13.3 11.8 4.7 6.6 13.5 15.0 15.0 7.2 15.0 15.0 15.0 0.1 9.4 4.7 2.8 15.0 13.1 4.4 1.3 0.7 0.2 0.1 0.1 0.2 1.0 5.6 0.3 0.1 0.1 15.0 15.0 15.0 15.0 15.0 15.0 15.0 15.0 15.0 15.0 15.0 15.0 15.0 15.0 15.0
15.0 15.0 15.0 15.0 15.0 15.0 15.0 10.7 15.0 15.0 15.0 5.2 14.9 15.0 15.0 15.0 15.0 15.0 15.0 15.0 5.8 15.0 4.9 1.1 5.7 15.0 3.2 1.2 0.4 0.1 0.2 0.1 0.1 0.1 5.4 3.8 2.4 3.5 15.0 13.4 15.0 15.0 15.0 15.0 15.0 15.0 15.0 15.0 15.0 15.0 15.0 15.0 15.0 15.0
15.0 15.0 15.0 15.0 15.0 15.0 15.0 15.0 15.0 15.0 7.2 15.0 15.0 15.0 15.0 0.1 13.4 11.4 14.5 0.1 0.1 0.1 0.4 3.0 10.1 7.2 12.5 2.0 0.3 3.1 2.7 0.8 1.6 9.8 0.5 0.1 8.6 1.8 1.6 1.2 1.9 1.9 2.2 7.0 15.0 15.0 14.7 14.9 15.0 15.0 15.0 15.0 15.0 15.0
15.0 15.0 15.0 15.0 15.0 15.0 14.8 15.0 15.0 14.7 13.2 15.0 9.3 3.6 14.7 15.0 5.3 15.0 2.2 1.2 0.3 0.2 0.3 0.2 7.2 5.4 8.4 4.0 7.3 15.0 3.7 1.1 1.0 14.9 12.5 0.6 1.8 1.0 0.7 0.7 1.8 3.4 4.0 7.4 4.7 7.7 15.0 8.8 4.3 4.9 15.0 15.0 15.0 15.0
15.0 15.0 15.0 15.0 15.0 15.0 11.9 13.8 15.0 0.9 10.1 15.0 11.8 15.0 8.9 0.8 0.6 3.6 1.6 0.7 1.3 1.6 0.5 0.6 1.1 1.6 4.2 8.1 7.6 0.2 0.4 0.1 0.6 7.9 0.4 1.2 0.8 0.5 1.0 1.6 2.8 4.1 14.7 15.0 15.0 15.0 15.0 15.0 15.0 15.0 15.0 15.0 15.0 15.0
15.0 15.0 15.0 15.0 15.0 15.0 15.0 9.2 7.4 14.6 15.0 15.0 6.0 2.4 8.9 1.8 0.9 2.3 0.6 3.3 1.4 1.9 1.2 0.9 0.8 0.6 0.3 1.1 0.5 0.5 0.2 0.8 13.9 0.2 2.8 1.2 1.0 1.2 1.0 2.0 13.5 15.0 15.0 15.0 15.0 15.0 15.0 15.0 15.0 15.0 15.0 15.0 15.0 15.0
15.0 15.0 15.0 15.0 15.0 15.0 15.0 15.0 15.0 1.7 0.0 0.1 1.1 0.3 2.9 0.9 6.1 15.0 15.0 15.0 1.5 1.5 1.5 1.2 1.5 1.0 0.5 0.4 0.6 0.1 0.3 0.2 0.1 0.2 1.3 1.9 1.8 2.6 3.3 5.0 3.4 14.5 15.0 15.0 15.0 15.0 15.0 15.0 15.0 15.0 15.0 15.0 15.0 15.0
15.0 15.0 15.0 15.0 15.0 15.0 15.0 15.0 15.0 3.8 0.2 0.1 0.1 0.5 0.3 1.3 1.2 1.0 2.0 2.4 2.6 2.4 3.2 2.3 2.0 1.5 1.4 0.3 1.3 0.2 0.1 0.2 0.3 1.3 2.7 1.1 0.2 0.2 0.4 5.5 15.0 15.0 15.0 15.0 15.0 15.0 15.0 15.0 15.0 15.0 15.0 15.0 15.0 15.0
15.0 15.0 15.0 15.0 15.0 15.0 15.0 15.0 15.0 15.0 0.3 0.1 0.1 0.2 0.8 1.8 0.7 1.0 0.8 1.2 1.8 2.0 0.8 0.6 0.3 0.7 2.2 0.3 0.2 0.2 0.4 1.7 3.6 1.6 0.4 0.5 9.5 11.2 15.0 15.0 15.0 15.0 15.0 15.0 15.0 15.0 15.0 15.0 15.0 15.0 15.0 15.0 15.0 15.0
15.0 15.0 15.0 15.0 15.0 15.0 15.0 15.0 15.0 15.0 4.4 0.3 0.4 0.8 0.3 0.2 0.2 0.2 0.2 0.2 0.4 0.3 0.2 0.3 0.2 6.1 5.5 0.6 0.5 0.7 1.1 2.0 0.5 4.1 14.5 15.0 15.0 15.0 15.0 15.0 15.0 15.0 15.0 15.0 15.0 15.0 15.0 15.0 15.0 3.8 6.3 15.0 15.0 15.0
15.0 15.0 15.0 15.0 15.0 15.0 15.0 15.0 15.0 15.0 3.8 2.8 9.7 1.8 0.8 0.4 0.3 0.8 1.7 3.5 8.3 4.4 5.6 10.4 15.0 4.0 3.9 4.4 14.4 8.7 4.3 13.5 15.0 15.0 15.0 15.0 15.0 15.0 15.0 15.0 15.0 15.0 15.0 15.0 15.0 15.0 14.9 5.4 4.5 9.3 15.0 15.0 13.5 14.4
15.0 15.0 15.0 15.0 15.0 15.0 15.0 15.0 15.0 5.9 2.2 1.8 1.4 4.3 8.8 4.7 3.6 5.0 3.2 2.2 2.4 4.9 14.4 15.0 13.1 4.4 15.0 9.0 15.0 15.0 14.8 4.0 2.6 7.0 8.6 15.0 15.0 15.0 15.0 15.0 15.0 15.0 15.0 15.0 12.2 7.5 12.6 14.6 8.8 11.5 13.0 9.3 1.2 7.8
15.0 15.0 15.0 15.0 15.0 15.0 15.0 14.6 15.0 15.0 11.8 2.2 3.6 3.2 3.4 4.0 6.0 15.0 15.0 15.0 15.0 15.0 15.0 14.1 13.4 15.0 15.0 15.0 15.0 4.8 6.0 3.5 0.6 1.7 15.0 15.0 15.0 15.0 15.0 15.0 10.7 14.4 4.5 6.0 6.8 9.0 6.7 3.4 14.8 12.9 6.8 0.9 0.1 0.5
15.0 15.0 15.0 15.0 15.0 15.0 15.0 6.6 7.5 1.6 2.5 6.4 1.6 3.6 4.6 12.4 15.0 15.0 15.0 10.0 15.0 4.6 9.4 15.0 15.0 15.0 15.0 15.0 9.8 4.3 6.3 3.6 1.7 0.7 1.2 1.5 15.0 2.3 3.3 15.0 14.9 5.1 1.3 3.5 1.9 5.7 15.0 7.1 15.0 15.0 7.2 5.0 14.9 14.7
15.0 15.0 15.0 15.0 15.0 15.0 7.4 2.3 3.4 3.0 12.2 4.4 5.7 5.3 5.1 15.0 8.6 5.8 2.5 12.2 1.4 7.3 15.0 9.0 15.0 8.5 4.4 13.8 15.0 15.0 15.0 9.9 10.5 1.3 1.4 0.8 0.4 4.3 8.5 12.6 1.1 2.5 10.1 8.9 4.6 1.3 3.8 15.0 12.5 1.1 0.3 0.2 0.5 0.5
15.0 15.0 15.0 15.0 15.0 15.0 9.2 15.0 14.1 10.2 10.7 2.6 3.6 12.0 4.1 2.7 3.1 3.8 10.2 2.9 5.5 11.3 15.0 10.1 12.9 12.1 4.9 15.0 15.0 15.0 15.0 10.4 3.6 4.3 5.9 5.3 6.0 7.5 3.3 8.5 10.7 0.8 1.0 8.7 15.0 2.9 1.4 14.0 10.3 3.5 2.7 2.0 0.9 1.5
15.0 15.0 15.0 14.2 14.0 13.6 14.7 9.2 11.0 14.8 13.1 12.7 5.2 11.8 3.9 2.6 3.2 3.2 11.8 4.7 5.9 14.0 13.7 10.0 4.3 6.1 15.0 15.0 15.0 15.0 15.0 6.0 1.8 5.5 13.3 2.1 1.5 11.6 15.0 15.0 15.0 14.2 1.0 0.4 1.8 1.0 1.1 0.5 2.4 1.4 0.9 0.3 0.8 2.8
15.0 13.7 11.7 14.7 15.0 14.8 13.9 14.7 5.0 14.6 4.3 3.4 3.7 5.5 4.7 1.7 2.6 2.2 7.8 3.9 2.8 14.7 14.9 4.3 13.7 4.4 1.5 4.1 15.0 15.0 15.0 0.9 0.4 0.7 14.8 15.0 1.0 2.8 15.0 15.0 15.0 15.0 15.0 0.3 0.4 0.6 0.3 0.2 0.3 0.6 0.9 0.4 0.2 0.9
6.8 6.6 10.7 3.0 7.2 12.0 3.2 15.0 3.8 5.0 3.4 2.8 3.0 2.6 1.9 2.9 3.0 15.0 14.9 2.7 10.5 11.0 2.3 1.1 0.8 1.7 9.7 9.2 1.1 3.6 5.6 1.2 0.4 0.9 13.9 15.0 0.5 0.1 0.6 1.2 3.7 12.5 15.0 12.8 0.1 0.1 0.5 2.4 0.5 0.4 0.4 0.4 0.4 0.2
15.0 13.3 10.6 10.8 7.8 2.5 3.5 2.1 3.6 4.4 2.6 3.6 2.7 3.2 2.7 3.5 5.0 15.0 2.0 1.5 2.6 2.9 1.5 1.4 0.9 0.7 0.8 1.9 4.9 12.0 3.7 1.5 0.4 1.0 6.8 5.5 0.8 0.3 0.1 0.1 0.2 1.8 0.9 0.1 0.1 0.2 0.1 0.3 0.5 0.3 0.2 0.6 0.2 0.1
14.4 4.0 8.5 7.8 5.7 1.7 3.4 1.8 2.1 5.8 6.6 6.4 7.7 3.8 5.9 13.7 15.0 2.4 1.2 0.8 0.8 1.8 4.0 6.0 4.6 0.9 0.7 1.6 0.7 0.6 3.3 14.1 15.0 15.0 15.0 15.0 15.0 14.9 0.5 0.1 0.1 0.3 0.9 0.3 0.1 0.2 0.3 0.3 0.2 0.1 0.2 0.2 0.2 0.3
11.6 9.1 3.1 7.5 2.4 1.6 1.4 3.0 3.6 3.8 2.7 2.8 3.4 4.4 3.4 12.9 1.7 1.1 0.8 0.7 1.6 3.3 8.7 5.0 14.7 15.0 15.0 15.0 6.8 1.9 1.6 0.9 0.7 2.8 7.3 14.2 15.0 15.0 15.0 15.0 7.8 0.2 0.2 0.5 1.7 0.3 0.1 0.1 0.1 0.1 0.3 0.2 0.2 0.1
13.9 2.8 7.4 3.0 3.9 3.0 1.8 1.8 1.7 1.1 1.4 1.3 1.5 2.7 6.1 9.9 1.0 0.6 0.5 1.1 2.9 2.0 1.4 1.4 2.0 2.7 2.7 1.6 3.4 15.0 15.0 8.9 0.2 0.1 0.2 0.9 0.8 1.3 3.5 0.2 0.1 0.4 0.4 0.7 1.2 2.2 5.1 2.8 3.2 3.9 1.2 0.9 0.6 0.3
11.6 11.7 6.5 1.9 4.0 2.1 0.8 2.0 2.5 4.0 1.7 2.0 1.3 1.1 2.0 1.9 6.9 0.9 0.5 0.7 0.9 1.4 2.0 4.7 12.0 14.6 3.7 2.4 1.0 2.0 7.8 15.0 13.5 1.0 0.3 0.2 2.6 1.1 0.1 0.1 0.3 0.4 0.4 0.6 0.7 0.7 0.7 1.2 0.8 0.5 0.5 0.3 0.2 0.2
6.6 2.8 0.8 1.6 2.1 2.1 4.6 3.0 2.5 1.9 1.6 1.7 1.4 0.9 1.2 0.8 0.7 0.7 0.7 0.5 0.9 2.1 1.6 1.8 2.4 3.7 12.9 5.5 1.5 0.4 0.2 0.3 0.4 0.8 0.4 0.3 0.1 0.1 0.1 0.2 0.2 1.0 0.5 0.6 0.6 0.6 0.5 0.4 0.3 0.3 0.3 0.3 0.2 0.2
1.9 1.6 1.0 1.8 3.6 2.2 4.3 2.0 1.3 0.9 1.1 1.1 1.4 1.4 1.3 1.1 0.5 0.6 0.4 0.3 0.3 0.4 0.5 1.4 4.8 6.7 15.0 10.8 3.3 2.7 6.3 2.0 0.3 0.2 0.2 0.3 0.5 0.2 0.3 0.3 0.2 2.8 2.2 1.0 0.8 0.8 0.5 0.5 0.3 0.3 0.2 0.2 0.2 0.2